Tracking 27371 objects as of 8-Jun-2023
HD Live streaming from Space Station
objects crossing your sky now

STARLINK-3121

Track STARLINK-3121 now!
10-day predictions
STARLINK-3121 is classified as:


NORAD ID: 49428
Int'l Code: 2021-104W
Perigee: 545.9 km
Apogee: 547.9 km
Inclination: 53.2 °
Period: 95.4 minutes
Semi major axis: 6917 km
RCS: Unknown
Launch date: November 13, 2021
Source: United States (US)
Launch site: AIR FORCE EASTERN TEST RANGE (AFETR)
Your satellite tracking list
Your tracking list is empty




NASA's NSSDC Master Catalog

Two Line Element Set (TLE):
1 49428U 21104W   23158.73964207  .00000411  00000-0  43946-4 0  9998
2 49428  53.2195  65.0034 0001500 105.2969 254.8189 15.08834087 86779
Source of the keplerian elements: AFSPC